Time,TemperatureF,DewpointF,PressureIn,WindDirection,WindDirectionDegrees,WindSpeedMPH,WindSpeedGustMPH,Humidity,HourlyPrecipIn,Conditions,Clouds,dailyrainin,SoftwareType,DateUTC
2013-01-02 00:01:00,44.2,43.0,30.00,SSE,150,0.0,1.0,96,0.02,,,0.00,weatherlink.com 1.10,2013-01-02 05:01:00,
2013-01-02 00:16:00,44.1,43.0,29.99,SSE,149,0.0,0.0,96,0.03,,,0.01,weatherlink.com 1.10,2013-01-02 05:16:00,
2013-01-02 00:31:00,44.0,43.0,29.98,SSE,148,0.0,0.0,96,0.04,,,0.02,weatherlink.com 1.10,2013-01-02 05:31:00,
2013-01-02 00:46:00,44.0,43.0,29.97,SSE,148,0.0,0.0,96,0.03,,,0.02,weatherlink.com 1.10,2013-01-02 05:46:00,
2013-01-02 01:01:00,44.0,43.0,29.97,WSW,248,2.0,2.0,96,0.02,,,0.02,weatherlink.com 1.10,2013-01-02 06:01:00,
2013-01-02 01:16:00,44.0,43.0,29.96,WSW,248,0.0,0.0,96,0.01,,,0.02,weatherlink.com 1.10,2013-01-02 06:16:00,
2013-01-02 01:31:00,43.8,43.0,29.96,WSW,248,0.0,0.0,96,0.00,,,0.02,weatherlink.com 1.10,2013-01-02 06:31:00,
2013-01-02 01:46:00,43.8,43.0,29.97,WSW,248,0.0,0.0,96,0.00,,,0.02,weatherlink.com 1.10,2013-01-02 06:46:00,
2013-01-02 02:01:00,43.7,43.0,29.95,WSW,249,0.0,0.0,96,0.00,,,0.02,weatherlink.com 1.10,2013-01-02 07:01:00,
2013-01-02 02:16:00,43.8,43.0,29.96,WSW,248,0.0,0.0,97,0.00,,,0.02,weatherlink.com 1.10,2013-01-02 07:16:00,
2013-01-02 02:31:00,43.9,43.0,29.96,WSW,248,0.0,1.0,97,0.00,,,0.02,weatherlink.com 1.10,2013-01-02 07:31:00,
2013-01-02 02:46:00,44.0,43.0,29.97,WSW,248,0.0,1.0,97,0.00,,,0.02,weatherlink.com 1.10,2013-01-02 07:46:00,
2013-01-02 03:01:00,43.9,43.0,29.97,NNE,22,0.0,3.0,97,0.00,,,0.02,weatherlink.com 1.10,2013-01-02 08:01:00,
2013-01-02 03:16:00,43.9,43.0,29.98,ENE,78,0.0,1.0,97,0.00,,,0.02,weatherlink.com 1.10,2013-01-02 08:16:00,
2013-01-02 03:31:00,43.9,43.0,29.98,ENE,78,0.0,1.0,97,0.00,,,0.02,weatherlink.com 1.10,2013-01-02 08:31:00,
2013-01-02 03:46:00,43.7,43.0,29.98,ENE,78,0.0,0.0,97,0.00,,,0.02,weatherlink.com 1.10,2013-01-02 08:46:00,
2013-01-02 04:01:00,43.6,43.0,29.98,ENE,77,0.0,1.0,97,0.00,,,0.02,weatherlink.com 1.10,2013-01-02 09:01:00,
2013-01-02 04:16:00,44.4,44.0,30.00,NNE,16,2.0,3.0,97,0.00,,,0.02,weatherlink.com 1.10,2013-01-02 09:16:00,
2013-01-02 04:31:00,44.4,44.0,29.99,NNE,16,1.0,2.0,97,0.00,,,0.02,weatherlink.com 1.10,2013-01-02 09:31:00,
2013-01-02 04:46:00,44.1,43.0,29.98,West,273,0.0,1.0,96,0.00,,,0.02,weatherlink.com 1.10,2013-01-02 09:46:00,
2013-01-02 05:01:00,43.6,43.0,30.00,NW,304,1.0,2.0,96,0.00,,,0.02,weatherlink.com 1.10,2013-01-02 10:01:00,
2013-01-02 05:16:00,44.1,41.0,30.00,NNW,336,0.0,3.0,90,0.00,,,0.02,weatherlink.com 1.10,2013-01-02 10:16:00,
2013-01-02 05:31:00,43.6,42.0,30.00,NNW,335,0.0,0.0,94,0.00,,,0.02,weatherlink.com 1.10,2013-01-02 10:31:00,
2013-01-02 05:46:00,43.3,42.0,30.00,SE,134,0.0,1.0,95,0.00,,,0.02,weatherlink.com 1.10,2013-01-02 10:46:00,
2013-01-02 06:01:00,43.2,42.0,30.00,SE,145,1.0,2.0,96,0.00,,,0.02,weatherlink.com 1.10,2013-01-02 11:01:00,
2013-01-02 06:16:00,43.2,42.0,29.99,SSE,147,0.0,1.0,96,0.00,,,0.02,weatherlink.com 1.10,2013-01-02 11:16:00,
2013-01-02 06:31:00,43.0,42.0,30.01,SE,145,0.0,1.0,96,0.00,,,0.02,weatherlink.com 1.10,2013-01-02 11:31:00,
2013-01-02 06:46:00,42.9,42.0,30.02,SE,145,0.0,1.0,96,0.00,,,0.02,weatherlink.com 1.10,2013-01-02 11:46:00,
2013-01-02 07:01:00,42.5,42.0,30.02,SE,145,0.0,1.0,96,0.00,,,0.02,weatherlink.com 1.10,2013-01-02 12:01:00,
2013-01-02 07:16:00,42.3,41.0,30.03,SE,145,0.0,2.0,96,0.00,,,0.02,weatherlink.com 1.10,2013-01-02 12:16:00,
2013-01-02 07:31:00,41.9,41.0,30.05,SE,144,0.0,1.0,96,0.00,,,0.02,weatherlink.com 1.10,2013-01-02 12:31:00,
2013-01-02 07:46:00,41.4,40.0,30.05,SE,144,1.0,1.0,96,0.00,,,0.02,weatherlink.com 1.10,2013-01-02 12:46:00,
2013-01-02 08:01:00,40.9,40.0,30.06,SE,144,0.0,1.0,96,0.00,,,0.02,weatherlink.com 1.10,2013-01-02 13:01:00,
2013-01-02 08:17:00,40.6,39.0,30.06,East,84,1.0,2.0,95,0.00,,,0.02,weatherlink.com 1.10,2013-01-02 13:17:00,
2013-01-02 08:32:00,41.3,39.0,30.07,WNW,293,0.0,4.0,91,0.00,,,0.02,weatherlink.com 1.10,2013-01-02 13:32:00,
2013-01-02 08:47:00,42.4,38.0,30.08,NNE,12,1.0,5.0,85,0.00,,,0.02,weatherlink.com 1.10,2013-01-02 13:47:00,
2013-01-02 09:02:00,42.8,38.0,30.10,North,349,3.0,6.0,82,0.00,,,0.02,weatherlink.com 1.10,2013-01-02 14:02:00,
2013-01-02 09:17:00,43.2,37.0,30.09,NW,304,4.0,6.0,80,0.00,,,0.02,weatherlink.com 1.10,2013-01-02 14:17:00,
2013-01-02 09:32:00,43.7,38.0,30.10,NW,308,1.0,5.0,79,0.00,,,0.02,weatherlink.com 1.10,2013-01-02 14:32:00,
2013-01-02 09:47:00,42.8,35.0,30.10,NNW,328,8.0,8.0,75,0.00,,,0.02,weatherlink.com 1.10,2013-01-02 14:47:00,
2013-01-02 10:02:00,42.2,35.0,30.13,NNW,339,10.0,10.0,76,0.00,,,0.02,weatherlink.com 1.10,2013-01-02 15:02:00,
2013-01-02 10:17:00,42.2,35.0,30.12,NW,316,2.0,7.0,75,0.00,,,0.02,weatherlink.com 1.10,2013-01-02 15:17:00,
2013-01-02 10:32:00,42.5,35.0,30.13,NNE,16,2.0,11.0,74,0.00,,,0.02,weatherlink.com 1.10,2013-01-02 15:32:00,
2013-01-02 10:47:00,43.3,34.0,30.14,NE,44,2.0,6.0,71,0.00,,,0.02,weatherlink.com 1.10,2013-01-02 15:47:00,
2013-01-02 11:02:00,43.3,34.0,30.13,North,5,2.0,7.0,70,0.00,,,0.02,weatherlink.com 1.10,2013-01-02 16:02:00,
2013-01-02 11:17:00,43.9,35.0,30.12,NW,321,3.0,7.0,71,0.00,,,0.02,weatherlink.com 1.10,2013-01-02 16:17:00,
2013-01-02 11:32:00,44.7,35.0,30.12,NW,315,3.0,5.0,68,0.00,,,0.02,weatherlink.com 1.10,2013-01-02 16:32:00,
2013-01-02 11:47:00,45.3,35.0,30.12,NNE,20,3.0,7.0,68,0.00,,,0.02,weatherlink.com 1.10,2013-01-02 16:47:00,
2013-01-02 12:02:00,44.5,33.0,30.11,NW,309,6.0,8.0,65,0.00,,,0.02,weatherlink.com 1.10,2013-01-02 17:02:00,
2013-01-02 12:17:00,44.8,34.0,30.09,NNW,340,4.0,8.0,65,0.00,,,0.02,weatherlink.com 1.10,2013-01-02 17:17:00,
2013-01-02 12:32:00,46.6,35.0,30.08,NE,41,2.0,6.0,64,0.00,,,0.02,weatherlink.com 1.10,2013-01-02 17:32:00,
2013-01-02 12:47:00,46.4,33.0,30.08,NW,311,4.0,5.0,61,0.00,,,0.02,weatherlink.com 1.10,2013-01-02 17:47:00,
2013-01-02 13:02:00,46.0,33.0,30.08,NW,326,0.0,7.0,61,0.00,,,0.02,weatherlink.com 1.10,2013-01-02 18:02:00,
2013-01-02 13:17:00,46.7,34.0,30.09,NNE,13,2.0,5.0,62,0.00,,,0.02,weatherlink.com 1.10,2013-01-02 18:17:00,
2013-01-02 13:32:00,48.0,34.0,30.07,NNW,345,1.0,3.0,58,0.00,,,0.02,weatherlink.com 1.10,2013-01-02 18:32:00,
2013-01-02 13:47:00,47.7,34.0,30.07,WNW,299,3.0,4.0,60,0.00,,,0.02,weatherlink.com 1.10,2013-01-02 18:47:00,
2013-01-02 14:02:00,47.6,33.0,30.07,NNE,13,1.0,4.0,58,0.00,,,0.02,weatherlink.com 1.10,2013-01-02 19:02:00,
2013-01-02 14:17:00,49.1,34.0,30.06,East,95,1.0,2.0,57,0.00,,,0.02,weatherlink.com 1.10,2013-01-02 19:17:00,
2013-01-02 14:32:00,49.0,34.0,30.07,WSW,256,0.0,5.0,56,0.00,,,0.02,weatherlink.com 1.10,2013-01-02 19:32:00,
2013-01-02 14:47:00,49.0,34.0,30.07,SSW,205,0.0,3.0,57,0.00,,,0.02,weatherlink.com 1.10,2013-01-02 19:47:00,
2013-01-02 15:02:00,49.2,34.0,30.07,SW,214,0.0,2.0,56,0.00,,,0.02,weatherlink.com 1.10,2013-01-02 20:02:00,
2013-01-02 15:17:00,48.2,34.0,30.08,North,356,3.0,5.0,58,0.00,,,0.02,weatherlink.com 1.10,2013-01-02 20:17:00,
2013-01-02 15:32:00,47.6,34.0,30.08,NNE,16,0.0,2.0,60,0.00,,,0.02,weatherlink.com 1.10,2013-01-02 20:32:00,
2013-01-02 15:47:00,47.0,34.0,30.09,NE,42,0.0,4.0,60,0.00,,,0.02,weatherlink.com 1.10,2013-01-02 20:47:00,
2013-01-02 16:02:00,46.6,34.0,30.09,East,79,0.0,2.0,63,0.00,,,0.02,weatherlink.com 1.10,2013-01-02 21:02:00,
2013-01-02 16:17:00,46.7,35.0,30.11,NNW,340,1.0,1.0,64,0.00,,,0.02,weatherlink.com 1.10,2013-01-02 21:17:00,
2013-01-02 16:32:00,46.3,34.0,30.10,East,86,0.0,1.0,63,0.00,,,0.02,weatherlink.com 1.10,2013-01-02 21:32:00,
2013-01-02 16:47:00,45.6,34.0,30.11,NNE,13,0.0,1.0,63,0.00,,,0.02,weatherlink.com 1.10,2013-01-02 21:47:00,
2013-01-02 17:02:00,44.8,34.0,30.11,NW,321,0.0,0.0,66,0.00,,,0.02,weatherlink.com 1.10,2013-01-02 22:02:00,
2013-01-02 17:17:00,44.1,33.0,30.11,North,354,2.0,3.0,65,0.00,,,0.02,weatherlink.com 1.10,2013-01-02 22:17:00,
2013-01-02 17:32:00,43.7,33.0,30.11,North,5,1.0,1.0,66,0.00,,,0.02,weatherlink.com 1.10,2013-01-02 22:32:00,
2013-01-02 17:47:00,43.4,34.0,30.11,North,5,0.0,0.0,70,0.00,,,0.02,weatherlink.com 1.10,2013-01-02 22:47:00,
2013-01-02 18:17:00,42.8,34.0,30.14,ESE,114,0.0,3.0,70,0.00,,,0.02,weatherlink.com 1.10,2013-01-02 23:17:00,
2013-01-02 18:32:00,42.2,33.0,30.15,ESE,112,0.0,2.0,71,0.00,,,0.02,weatherlink.com 1.10,2013-01-02 23:32:00,
2013-01-02 19:03:00,41.5,33.0,30.15,East,101,0.0,3.0,72,0.00,,,0.02,weatherlink.com 1.10,2013-01-03 00:03:00,
2013-01-02 19:18:00,41.0,33.0,30.16,East,94,0.0,4.0,72,0.00,,,0.02,weatherlink.com 1.10,2013-01-03 00:18:00,
2013-01-02 19:48:00,40.4,32.0,30.16,SE,124,0.0,1.0,73,0.00,,,0.02,weatherlink.com 1.10,2013-01-03 00:48:00,
2013-01-02 20:03:00,40.1,32.0,30.15,East,83,0.0,1.0,73,0.00,,,0.02,weatherlink.com 1.10,2013-01-03 01:03:00,
2013-01-02 20:18:00,39.9,32.0,30.17,ESE,120,0.0,1.0,74,0.00,,,0.02,weatherlink.com 1.10,2013-01-03 01:18:00,
2013-01-02 20:33:00,39.7,32.0,30.16,East,95,1.0,1.0,73,0.00,,,0.02,weatherlink.com 1.10,2013-01-03 01:33:00,
2013-01-02 20:48:00,39.5,32.0,30.17,SE,146,0.0,3.0,73,0.00,,,0.02,weatherlink.com 1.10,2013-01-03 01:48:00,
2013-01-02 21:03:00,39.3,31.0,30.18,SE,129,0.0,1.0,73,0.00,,,0.02,weatherlink.com 1.10,2013-01-03 02:03:00,
2013-01-02 21:18:00,39.2,31.0,30.18,SSE,153,0.0,2.0,73,0.00,,,0.02,weatherlink.com 1.10,2013-01-03 02:18:00,
2013-01-02 21:33:00,39.1,31.0,30.18,ESE,118,0.0,1.0,74,0.00,,,0.02,weatherlink.com 1.10,2013-01-03 02:33:00,
2013-01-02 21:48:00,38.9,32.0,30.18,SE,142,0.0,1.0,75,0.00,,,0.02,weatherlink.com 1.10,2013-01-03 02:48:00,
2013-01-02 22:03:00,38.8,32.0,30.18,SE,143,0.0,0.0,75,0.00,,,0.02,weatherlink.com 1.10,2013-01-03 03:03:00,
2013-01-02 22:18:00,38.7,31.0,30.20,SE,142,0.0,0.0,74,0.00,,,0.02,weatherlink.com 1.10,2013-01-03 03:18:00,
2013-01-02 22:33:00,38.7,32.0,30.20,West,274,0.0,0.0,76,0.00,,,0.02,weatherlink.com 1.10,2013-01-03 03:33:00,
2013-01-02 22:48:00,38.6,31.0,30.20,West,274,0.0,1.0,75,0.00,,,0.02,weatherlink.com 1.10,2013-01-03 03:48:00,
2013-01-02 23:03:00,38.5,32.0,30.20,West,274,0.0,0.0,76,0.00,,,0.02,weatherlink.com 1.10,2013-01-03 04:03:00,
2013-01-02 23:18:00,38.4,31.0,30.19,West,274,1.0,1.0,76,0.00,,,0.02,weatherlink.com 1.10,2013-01-03 04:18:00,
2013-01-02 23:33:00,38.3,31.0,30.19,North,360,0.0,1.0,76,0.00,,,0.02,weatherlink.com 1.10,2013-01-03 04:33:00,
2013-01-02 23:48:00,38.2,31.0,30.19,North,1,0.0,0.0,76,0.00,,,0.02,weatherlink.com 1.10,2013-01-03 04:48:00,